Regional Weather Roundup
Issued by NWS

Home | Current Version | Previous Version | Text Only | Print | Product List | Glossary On
Versions: 1 2 3 4 5 6 7 8 9 10 11 12 13 14 15 16 17 18 19 20 21 22 23 24 25 26 27 28 29 30 31 32 33 34 35 36 37 38 39 40 41 42 43 44 45 46 47 48 49 50
000
ASUS45 KREV 031010
RWRNV
NEVADA REGIONAL WEATHER ROUNDUP
NATIONAL WEATHER SERVICE RENO NV
300 AM PDT FRI JUL 03 2015

NOTE: "FAIR" INDICATES FEW OR NO CLOUDS BELOW 12,000 FEET WITH NO
SIGNIFICANT WEATHER AND/OR OBSTRUCTIONS TO VISIBILITY.

NVZ001-003-004-031100-
WESTERN NEVADA

CITY           SKY/WX    TMP DP  RH WIND       PRES   REMARKS
RENO           CLOUDY    72  58  61 S12       30.10S
CARSON CITY    MOCLDY    66  59  77 CALM      30.14F
MINDEN         FAIR      63  63 100 SE8       30.14F
PYRAMID LAKE     N/A     75 N/A N/A S12         N/A
FALLON         MOCLDY    76  58  53 SW9       30.03F
LOVELOCK       CLOUDY    76  57  51 E7        30.03R
HAWTHORNE      CLEAR     70  64  83 CALM      30.07F
$$

NVZ002-CAZ072-073-031100-
NORTHERN AND CENTRAL SIERRA

CITY           SKY/WX    TMP DP  RH WIND       PRES   REMARKS
S. LAKE TAHOE  MOCLDY    60  56  86 CALM      30.23F
TRUCKEE        CLOUDY    55  55 100 CALM      30.21F
SQUAW VLY 8000 NOT AVBL
SUSANVILLE     PTCLDY    72  59  64 W10       30.06F
BLUE CANYON    CLOUDY    69  53  56 CALM      30.16R
MAMMOTH LAKES  LGT RAIN  59  55  88 W14       30.29F
BRIDGEPORT     FAIR      54  50  86 SW3       30.27F
$$

NVZ030-031-036-031100-
NORTHERN NEVADA

CITY           SKY/WX    TMP DP  RH WIND       PRES   REMARKS
ELKO           PTCLDY    66  50  56 CALM      30.12F
WINNEMUCCA     NOT AVBL
WENDOVER       PTCLDY    79  45  29 N5        30.01F
$$

NVZ035-037-031100-
CENTRAL NEVADA

CITY           SKY/WX    TMP DP  RH WIND       PRES   REMARKS
ELY            MOCLDY    64  52  64 S3        30.21S
EUREKA           N/A     66  51  58 S5        30.18F
$$

NVZ013-014-031100-
SOUTH CENTRAL NEVADA

CITY           SKY/WX    TMP DP  RH WIND       PRES   REMARKS
TONOPAH        CLEAR     69  52  54 N10       30.13F
$$

NVZ017-020-022-031100-
SOUTHERN NEVADA

CITY           SKY/WX    TMP DP  RH WIND       PRES   REMARKS
LAS VEGAS      PTCLDY    91  51  25 S15       29.81R
N. LAS VEGAS   CLEAR     90  55  30 CALM      29.83S
NELLIS AFB     PTCLDY    91  53  27 S5        29.81R
HENDERSON      CLEAR     88  53  30 S14       29.89S
MERCURY        CLEAR     81  49  32 NE6       29.94F
$$


USA.gov is the U.S. government's official web portal to all federal, state and local government web resources and services.